GW1243 Weather Reports


time (UTC)temp
C
wind
direction
speed
KPH
gust
KPH
rain 1hr
cm
rain 24hr
cm
rain mn
cm
humidity
%
barometer
mb
20260510094539 8 153 4.8 16.1 0.00 0.00 0.00 88 1031.4
20260510093036 8 146 6.4 12.9 0.00 0.00 0.00 88 1031.1
20260510091535 8 142 4.8 12.9 0.00 0.00 0.00 87 1031.1
20260510090036 8 146 4.8 12.9 0.00 0.00 0.00 86 1030.7
20260510084536 8 156 6.4 14.5 0.00 0.00 0.00 86 1030.7
20260510083037 9 145 9.7 16.1 0.00 0.00 0.00 85 1030.6
20260510081530 9 155 8.0 14.5 0.00 0.00 0.00 84 1030.4
20260510080036 10 149 8.0 16.1 0.00 0.00 0.00 83 1030.2
20260510074541 10 162 8.0 17.7 0.00 0.00 0.00 81 1030.1
20260510073037 11 163 9.7 16.1 0.00 0.00 0.00 80 1030.2
20260510071536 11 137 8.0 17.7 0.00 0.00 0.00 78 1030.2
20260510070034 12 153 11.3 19.3 0.00 0.00 0.00 76 1030.0
20260510064538 12 167 8.0 17.7 0.00 0.00 0.00 75 1030.1
20260510063037 13 159 8.0 17.7 0.00 0.00 0.00 73 1029.9
20260510061538 13 134 8.0 22.5 0.00 0.00 0.00 72 1029.9
20260510060046 13 147 11.3 24.1 0.00 0.00 0.00 72 1029.8
20260510054536 13 128 9.7 19.3 0.00 0.00 0.00 72 1029.7
20260510053035 14 171 9.7 19.3 0.00 0.00 0.00 71 1029.5
20260510051543 14 170 11.3 20.9 0.00 0.00 0.00 71 1029.5
20260510050036 14 151 9.7 19.3 0.00 0.00 0.00 72 1029.5
20260510044538 14 161 9.7 17.7 0.00 0.00 0.00 71 1029.4
20260510043047 15 98 11.3 19.3 0.00 0.00 0.00 72 1029.4
20260510041535 14 134 8.0 19.3 0.00 0.00 0.00 72 1029.4
20260510040036 14 153 8.0 17.7 0.00 0.00 0.00 73 1029.5
20260510034539 14 152 11.3 17.7 0.00 0.00 0.00 73 1029.5
20260510033030 14 104 8.0 17.7 0.00 0.00 0.00 74 1029.5
20260510031604 13 176 11.3 20.9 0.00 0.00 0.00 74 1029.6
20260510030038 13 155 6.4 22.5 0.00 0.00 0.00 75 1029.8
20260510024537 13 133 11.3 20.9 0.00 0.00 0.00 76 1029.9
20260510023045 13 150 9.7 20.9 0.00 0.00 0.00 77 1029.9
20260510021542 13 117 8.0 19.3 0.00 0.00 0.00 79 1030.1
20260510020035 12 156 11.3 22.5 0.00 0.00 0.00 79 1030.3
20260510014535 12 139 9.7 22.5 0.00 0.00 0.00 81 1030.4
20260510013037 12 148 14.5 20.9 0.00 0.00 0.00 82 1030.6
20260510012521 12 121 11.3 22.5 0.00 0.00 0.00 83 1030.6
20260510012019 12 118 12.9 22.5 0.00 0.00 0.00 84 1030.7
20260510011608 11 97 11.3 22.5 0.00 0.00 0.00 85 1030.7
20260510011020 11 113 11.3 22.5 0.00 0.00 0.00 86 1030.7
20260510010518 11 121 14.5 24.1 0.00 0.00 0.00 86 1030.7
20260510010042 11 132 12.9 25.7 0.00 0.00 0.00 87 1030.7
20260510005517 11 175 12.9 25.7 0.00 0.00 0.00 88 1030.8
20260510005017 11 127 14.5 25.7 0.00 0.00 0.00 89 1030.7
20260510004536 11 166 12.9 30.6 0.00 0.00 0.00 89 1030.7
20260510004019 11 155 16.1 30.6 0.00 0.00 0.00 89 1030.7
20260510003519 11 152 17.7 30.6 0.00 0.00 0.00 89 1030.7
20260510003031 11 134 14.5 27.4 0.00 0.00 0.00 89 1030.7
20260510002519 11 157 14.5 30.6 0.00 0.00 0.00 90 1030.7
20260510002022 11 156 17.7 30.6 0.00 0.00 0.00 91 1030.7
20260510001533 11 162 11.3 24.1 0.00 0.00 0.00 92 1030.6
20260510001020 10 119 14.5 24.1 0.00 0.00 0.00 92 1030.6
20260510000518 10 157 12.9 24.1 0.00 0.00 0.00 92 1030.6
20260510000035 10 107 12.9 25.7 0.00 0.00 0.00 92 1030.7
20260509235518 10 120 12.9 25.7 0.00 0.00 0.00 93 1030.7
20260509235016 10 143 16.1 29.0 0.00 0.00 0.00 93 1030.7
20260509234536 10 154 14.5 29.0 0.00 0.00 0.00 93 1030.7
20260509234017 10 137 14.5 27.4 0.00 0.00 0.00 94 1030.7
20260509233516 10 117 14.5 24.1 0.00 0.00 0.00 94 1030.7
20260509233035 10 149 14.5 30.6 0.00 0.00 0.00 94 1030.7
20260509232521 10 138 14.5 30.6 0.00 0.00 0.00 94 1030.6
20260509232019 9 125 12.9 22.5 0.00 0.00 0.00 94 1030.6
20260509231537 9 113 11.3 25.7 0.00 0.00 0.00 94 1030.6
20260509231020 9 144 12.9 25.7 0.00 0.00 0.00 94 1030.5
20260509230519 9 132 11.3 22.5 0.00 0.00 0.00 94 1030.5
20260509230037 9 124 8.0 27.4 0.00 0.00 0.00 94 1030.5
20260509225520 9 122 12.9 27.4 0.00 0.00 0.00 94 1030.4
20260509225019 9 153 12.9 32.2 0.00 0.00 0.00 94 1030.4
20260509224535 9 151 14.5 32.2 0.00 0.00 0.00 94 1030.4
20260509224019 9 122 16.1 30.6 0.00 0.00 0.00 94 1030.2
20260509223519 9 130 14.5 35.4 0.00 0.00 0.00 94 1030.2
20260509223033 9 146 16.1 35.4 0.00 0.00 0.00 94 1030.2
20260509222518 9 140 11.3 30.6 0.00 0.00 0.00 94 1030.3
20260509222019 9 157 19.3 32.2 0.00 0.00 0.00 94 1030.1
20260509221535 9 145 12.9 32.2 0.00 0.00 0.00 94 1030.1
20260509221019 9 163 9.7 24.1 0.00 0.00 0.00 94 1030.0
20260509220518 9 148 9.7 22.5 0.00 0.00 0.00 94 1030.1
20260509220037 9 134 12.9 22.5 0.00 0.00 0.00 94 1029.9
20260509215523 8 144 14.5 25.7 0.00 0.00 0.00 94 1029.9
20260509215020 8 157 14.5 27.4 0.00 0.00 0.00 94 1029.8
20260509214537 8 154 12.9 27.4 0.00 0.00 0.00 94 1029.8
20260509214019 8 129 12.9 27.4 0.00 0.00 0.00 94 1029.7
20260509213520 8 133 14.5 27.4 0.00 0.00 0.00 94 1029.7
20260509213042 8 159 11.3 29.0 0.00 0.00 0.00 94 1029.7
20260509212519 8 134 14.5 32.2 0.00 0.00 0.00 94 1029.6
20260509212019 8 153 14.5 32.2 0.00 0.00 0.00 94 1029.5
20260509211606 8 152 12.9 24.1 0.00 0.00 0.00 94 1029.5
20260509211019 8 136 12.9 24.1 0.00 0.00 0.00 94 1029.4
20260509210519 8 110 12.9 24.1 0.00 0.00 0.00 94 1029.3
20260509210037 8 157 11.3 24.1 0.00 0.00 0.00 94 1029.3
20260509205520 8 160 8.0 27.4 0.00 0.00 0.00 94 1029.2
20260509205019 8 120 9.7 27.4 0.00 0.00 0.00 94 1029.1
20260509204540 8 126 12.9 25.7 0.00 0.00 0.00 94 1029.2
20260509204020 8 154 12.9 22.5 0.00 0.00 0.00 94 1029.2
20260509203516 8 121 9.7 22.5 0.00 0.00 0.00 94 1029.1
20260509203041 8 149 8.0 24.1 0.00 0.00 0.00 94 1029.1
20260509202519 8 145 12.9 24.1 0.00 0.00 0.00 94 1029.1
20260509202022 8 111 12.9 22.5 0.00 0.00 0.00 94 1029.0
20260509201535 8 143 12.9 27.4 0.00 0.00 0.00 94 1028.8
20260509201021 8 161 11.3 27.4 0.00 0.00 0.00 94 1028.8
20260509200520 9 129 14.5 25.7 0.00 0.00 0.00 94 1028.8
20260509200036 9 130 12.9 24.1 0.00 0.00 0.00 94 1028.8
20260509195521 9 144 6.4 24.1 0.00 0.00 0.00 94 1028.7
20260509195018 9 130 9.7 30.6 0.00 0.00 0.00 94 1028.6
20260509194538 9 161 12.9 30.6 0.00 0.00 0.00 94 1028.6
20260509194019 9 157 17.7 30.6 0.00 0.00 0.00 94 1028.5
20260509193519 9 125 8.0 24.1 0.00 0.00 0.00 94 1028.5
20260509193035 9 149 11.3 24.1 0.00 0.00 0.00 94 1028.4
20260509192519 9 153 11.3 27.4 0.00 0.00 0.00 94 1028.2
20260509192019 9 132 12.9 32.2 0.00 0.00 0.00 94 1028.2
20260509191535 9 126 12.9 32.2 0.00 0.00 0.00 94 1028.1
20260509191020 9 115 12.9 27.4 0.00 0.00 0.00 94 1028.0
20260509190520 9 158 12.9 27.4 0.00 0.00 0.00 94 1027.9
20260509190044 9 191 11.3 30.6 0.00 0.00 0.00 94 1027.8
20260509185520 9 155 14.5 30.6 0.00 0.00 0.00 94 1027.8
20260509185019 9 104 14.5 27.4 0.00 0.00 0.00 94 1027.8
20260509184533 9 134 12.9 27.4 0.00 0.00 0.00 94 1027.7
20260509184019 9 142 16.1 27.4 0.00 0.00 0.00 94 1027.7
20260509183517 9 115 14.5 25.7 0.00 0.00 0.00 94 1027.6
20260509183038 9 123 9.7 25.7 0.00 0.00 0.00 94 1027.6
20260509182520 9 144 14.5 25.7 0.00 0.00 0.00 94 1027.6
20260509182021 9 124 17.7 30.6 0.00 0.00 0.00 94 1027.6
20260509181539 9 135 16.1 33.8 0.00 0.00 0.00 94 1027.6
20260509181019 9 157 19.3 33.8 0.00 0.00 0.00 94 1027.5
20260509180519 9 116 17.7 29.0 0.00 0.00 0.00 94 1027.5
20260509180036 10 135 14.5 29.0 0.00 0.00 0.00 94 1027.6
20260509175519 10 133 12.9 32.2 0.00 0.00 0.00 94 1027.5
20260509175019 10 132 17.7 32.2 0.00 0.00 0.00 94 1027.6
20260509174537 10 169 16.1 30.6 0.00 0.00 0.00 94 1027.6
20260509174020 10 158 12.9 30.6 0.00 0.00 0.00 94 1027.6
20260509173520 10 124 16.1 30.6 0.00 0.00 0.00 94 1027.6
20260509173030 10 148 12.9 25.7 0.00 0.00 0.00 94 1027.7
20260509172516 10 123 9.7 30.6 0.00 0.00 0.00 94 1027.8
20260509172019 10 178 12.9 30.6 0.00 0.00 0.00 94 1027.8
20260509171539 10 132 14.5 32.2 0.00 0.00 0.00 94 1027.7
20260509171018 10 149 17.7 35.4 0.00 0.00 0.00 94 1027.7
20260509170520 10 136 19.3 35.4 0.00 0.00 0.00 94 1027.8
20260509170036 10 123 12.9 24.1 0.00 0.00 0.00 94 1027.7
20260509165520 10 162 16.1 32.2 0.00 0.00 0.00 95 1027.7
20260509165019 10 126 16.1 32.2 0.00 0.00 0.00 94 1027.8
20260509164535 10 126 17.7 30.6 0.00 0.00 0.00 95 1027.8
20260509164019 10 149 12.9 24.1 0.00 0.00 0.00 95 1027.9
20260509163519 10 121 11.3 25.7 0.00 0.00 0.00 94 1027.9
20260509163049 10 150 8.0 29.0 0.00 0.00 0.00 94 1027.8
20260509162519 10 153 9.7 30.6 0.00 0.00 0.00 94 1027.8
20260509162019 10 162 14.5 30.6 0.00 0.00 0.00 94 1027.8
20260509161534 10 136 14.5 25.7 0.00 0.00 0.00 94 1027.8
20260509161019 10 125 12.9 29.0 0.00 0.00 0.00 94 1027.8
20260509160520 10 139 12.9 29.0 0.00 0.00 0.00 94 1027.9
20260509160033 10 113 14.5 25.7 0.00 0.00 0.00 94 1027.9
20260509155519 10 123 12.9 33.8 0.00 0.00 0.00 95 1027.9
20260509155019 10 156 12.9 33.8 0.00 0.00 0.00 95 1027.8
20260509154537 10 154 14.5 29.0 0.00 0.00 0.00 95 1027.8
20260509154019 10 94 12.9 32.2 0.00 0.00 0.00 94 1027.8
20260509153520 10 138 11.3 32.2 0.00 0.00 0.00 94 1027.8
20260509153035 10 120 17.7 29.0 0.00 0.00 0.00 94 1027.7
20260509152519 10 111 16.1 30.6 0.00 0.00 0.00 94 1027.8
20260509152024 10 131 16.1 33.8 0.00 0.00 0.00 94 1027.9
20260509151536 10 149 16.1 33.8 0.00 0.00 0.00 94 1027.8
20260509151019 10 163 20.9 33.8 0.00 0.00 0.00 94 1027.9
20260509150519 10 136 16.1 33.8 0.00 0.00 0.00 94 1028.0
20260509150030 10 142 17.7 32.2 0.00 0.00 0.00 94 1027.9
20260509145519 10 147 12.9 25.7 0.00 0.00 0.00 94 1028.0
20260509145022 10 116 12.9 29.0 0.00 0.00 0.00 94 1028.0
20260509144530 10 158 16.1 29.0 0.00 0.00 0.00 94 1028.0
20260509144019 10 180 14.5 22.5 0.00 0.00 0.00 94 1028.0
20260509143521 10 119 12.9 29.0 0.00 0.00 0.00 94 1028.0
20260509143036 10 145 12.9 29.0 0.00 0.00 0.00 94 1028.0
20260509142519 10 165 12.9 25.7 0.00 0.00 0.00 94 1028.0
20260509142019 10 133 14.5 27.4 0.00 0.00 0.00 94 1028.0
20260509141535 10 148 16.1 27.4 0.00 0.00 0.00 94 1028.0
20260509141020 10 123 14.5 25.7 0.00 0.00 0.00 94 1028.0
20260509140520 10 138 12.9 22.5 0.00 0.00 0.00 94 1028.0
20260509140039 10 153 9.7 25.7 0.00 0.00 0.00 94 1028.2
20260509135519 10 126 12.9 25.7 0.00 0.00 0.00 94 1028.0
20260509135019 10 161 16.1 25.7 0.00 0.00 0.00 94 1028.1
20260509134541 10 146 14.5 25.7 0.00 0.00 0.00 94 1028.1
20260509134019 10 146 9.7 25.7 0.00 0.00 0.00 94 1028.3
20260509133519 10 151 11.3 25.7 0.00 0.00 0.00 94 1028.2
20260509133031 10 158 12.9 25.7 0.00 0.00 0.00 94 1028.3
20260509132516 10 145 12.9 27.4 0.00 0.00 0.00 94 1028.2
20260509132018 9 150 14.5 27.4 0.00 0.00 0.00 94 1028.2
20260509131536 9 136 9.7 24.1 0.00 0.00 0.00 94 1028.2
20260509131019 9 130 11.3 24.1 0.00 0.00 0.00 94 1028.2
20260509130519 9 131 14.5 24.1 0.00 0.00 0.00 94 1028.2
20260509130035 9 153 12.9 22.5 0.00 0.00 0.00 94 1028.2
20260509125519 9 130 11.3 24.1 0.00 0.00 0.00 94 1028.2
20260509125019 10 127 11.3 24.1 0.00 0.00 0.00 94 1028.2
20260509124535 10 149 12.9 24.1 0.00 0.00 0.00 94 1028.2
20260509124019 10 86 8.0 25.7 0.00 0.00 0.00 94 1028.3
20260509123519 10 126 8.0 25.7 0.00 0.00 0.00 94 1028.2
20260509123034 10 130 14.5 30.6 0.00 0.00 0.00 94 1028.2
20260509122518 10 163 14.5 30.6 0.00 0.00 0.00 94 1028.1
20260509122021 10 142 16.1 30.6 0.00 0.00 0.00 93 1028.1
20260509121538 10 146 17.7 32.2 0.00 0.00 0.00 93 1028.2
20260509121022 10 151 17.7 32.2 0.00 0.00 0.00 93 1028.2
20260509120519 10 165 14.5 27.4 0.00 0.00 0.00 93 1028.2
20260509120037 10 126 14.5 27.4 0.00 0.00 0.00 93 1028.2
20260509115520 10 140 14.5 25.7 0.00 0.00 0.00 93 1028.2
20260509115019 10 163 14.5 25.7 0.00 0.00 0.00 93 1028.1
20260509114538 9 131 14.5 24.1 0.00 0.00 0.00 93 1028.2
20260509114016 9 132 14.5 27.4 0.00 0.00 0.00 93 1028.2
20260509113520 9 130 12.9 27.4 0.00 0.00 0.00 93 1028.1
20260509113036 9 137 14.5 25.7 0.00 0.00 0.00 93 1028.2
20260509112520 9 161 12.9 20.9 0.00 0.00 0.00 93 1028.1
20260509112023 9 138 9.7 22.5 0.00 0.00 0.00 92 1028.3
20260509111534 9 167 11.3 24.1 0.00 0.00 0.00 92 1028.2
20260509111019 9 123 14.5 24.1 0.00 0.00 0.00 92 1028.2
20260509110519 9 123 11.3 24.1 0.00 0.00 0.00 92 1028.1
20260509110040 9 101 11.3 24.1 0.00 0.00 0.00 92 1028.1
20260509105522 10 160 12.9 24.1 0.00 0.00 0.00 92 1028.1
20260509105020 10 154 11.3 19.3 0.00 0.00 0.00 92 1028.1
20260509104540 10 152 11.3 19.3 0.00 0.00 0.00 92 1028.1
20260509104019 10 119 11.3 19.3 0.00 0.00 0.00 92 1028.2
20260509103519 10 148 6.4 16.1 0.00 0.00 0.00 91 1028.0
20260509103037 10 133 8.0 20.9 0.00 0.00 0.00 91 1028.1
20260509102521 10 147 9.7 20.9 0.00 0.00 0.00 91 1028.1
20260509102020 10 146 9.7 17.7 0.00 0.00 0.00 91 1028.1
20260509101535 10 161 8.0 17.7 0.00 0.00 0.00 91 1028.2
20260509101020 10 175 9.7 17.7 0.00 0.00 0.00 91 1028.2
20260509100519 10 145 9.7 17.7 0.00 0.00 0.00 90 1028.2
20260509100035 10 151 8.0 14.5 0.00 0.00 0.00 90 1028.1
20260509095519 10 151 8.0 14.5 0.00 0.00 0.00 90 1028.1